Tracking 19286 objects as of 19-Nov-2018
HD Live streaming from Space Station
objects crossing your sky now

SATCOM 3

Track SATCOM 3 now!
SATCOM 3 is classified as:


NORAD ID: 11635
Int'l Code: 1979-101A
Perigee: 8,206.3 km
Apogee: 35,615.2 km
Inclination: 10.1 °
Period: 788.9 minutes
Semi major axis: 28281 km
RCS: 6.1128 m2 (large)
Launch date: December 7, 1979
Source: United States (US)
Launch site: AIR FORCE EASTERN TEST RANGE (AFETR)
aabbcc
Your satellite tracking list
Your tracking list is empty




NASA's NSSDC Master Catalog

Two Line Element Set (TLE):
1 11635U 79101A   18321.82172306 -.00000090 +00000-0 +00000-0 0  9998
2 11635 010.1270 357.3047 4845677 301.4421 018.3497 01.82534046173426
Source of the keplerian elements: AFSPC